Find Local Weather

World > North America > United States > Ohio

Beaver Creek, Ohio Regional Weather

Lat: 39.77N, Lon: 84.12W
Wx Zone: OHZ061
Warning FLW WEATHER ALERT - (More Info. Click Here) Warning
Feedback

Beaver Creek, OH Regional Weather

Expires:201905251500;;438062
ASUS41 KCLE 251412
RWRCLE
OHIO REGIONAL WEATHER ROUNDUP
NATIONAL WEATHER SERVICE WILMINGTON, OH
1000 AM EDT SAT MAY 25 2019

NOTE: "FAIR" INDICATES FEW OR NO CLOUDS BELOW 12,000 FEET WITH NO
SIGNIFICANT WEATHER AND/OR OBSTRUCTIONS TO VISIBILITY.


OHZ042-051>053-060>062-070>072-077>081-251500-
  SOUTHWEST OHIO
  
CITY           SKY/WX    TMP DP  RH WIND       PRES   REMARKS
CINC-COVINGTON PTSUNNY   76  66  71 SW12      30.09R                  
CINC-LUNKEN    FAIR      75  69  81 S7        30.09S                  
HAMILTON       PTSUNNY   77  68  73 W8        30.08S                  
DAYTON         PTSUNNY   77  66  68 SW12      30.07S                  
WRIGHT-PAT AFB FAIR      77  67  72 SW12      30.06S                  
DAYTON GENERAL FAIR      79  66  64 SW9       30.07F                  
WILMINGTON     PTSUNNY   74  68  81 SW9       30.08F                  
$$


SKY/WX - Weather  TMP - Temperature  DP - Dew Point  RH - Relative Humidity
WIND - Wind Direction/Speed PRES - Barometric Pressure VSB - Visibility
WCI - Wind Chill Index E13G22 Wind - East Wind 13 mph/Gusts of 22 mph